Regional Weather Roundup
Issued by NWS

Home | Current Version | Previous Version | Graphics & Text | Print | Product List | Glossary Off
Versions: 1 2 3 4 5 6 7 8 9 10 11 12 13 14 15 16 17 18 19 20 21 22 23 24 25 26 27 28 29 30 31 32 33 34 35 36 37 38 39 40 41 42 43 44 45 46 47 48 49 50

000
ASUS43 KDMX 060808
RWRIA

WEATHER ROUNDUP FOR IOWA
NATIONAL WEATHER SERVICE DES MOINES IA
200 AM CST SAT FEB 06 2016

NOTE: "FAIR" INDICATES FEW OR NO CLOUDS BELOW 12,000 FEET WITH NO
SIGNIFICANT WEATHER AND/OR OBSTRUCTIONS TO VISIBILITY.

* - THESE STATIONS ARE NOT NWS STATIONS...THUS NOT UNDER NWS
QUALITY CONTROL.  THEY ALSO DO NOT REPORT WEATHER SUCH
AS PRECIPITATION OR FOG.

IAZ001>003-012>014-020>022-031>034-043>046-060900-
   NORTHWEST IOWA

CITY           SKY/WX    TMP DP  RH WIND       PRES   REMARKS
CARROLL *      CLOUDY    30  30 100 SW7       30.23R FOG     WCI  23
CHEROKEE *     CLOUDY    27  27 100 W3        30.22S
DENISON *      CLOUDY    28  28 100 CALM      30.21S FOG
LE MARS *      FOG       18  18 100 CALM      30.23S VSB 0
ORANGE CITY *  FOG       19  18  93 CALM      30.20S VSB 0
SHELDON *      FOG       16  16 100 SW3       30.18F VSB 0
SIOUX CITY     FOG       22  19  89 W3        30.24S VSB 3/4
SPENCER        CLOUDY    25  22  88 W5        30.19F FOG     WCI  19
STORM LAKE *   CLOUDY    27  27 100 NW8       30.21S FOG     WCI  18
$$

IAZ055>058-069>071-079>083-090>094-060900-
   SOUTHWEST IOWA

CITY           SKY/WX    TMP DP  RH WIND       PRES   REMARKS
ATLANTIC *     CLOUDY    28  27  93 S3        30.23F FOG
AUDUBON *      CLOUDY    28  27  93 CALM      30.24S FOG
CLARINDA *     CLOUDY    27  27 100 CALM      30.27F FOG
COUNCIL BLFS * CLOUDY    28  28 100 NW6       30.24S WCI  22
CRESTON *      FOG       21  19  93 CALM      30.25S VSB 0
HARLAN  *      CLOUDY    28  28 100 NW5       30.27S FOG     WCI  23
LAMONI         CLEAR     26  21  81 SW7       30.24F WCI  18
RED OAK *      CLOUDY    30  30 100 CALM      30.25F FOG
SHENANDOAH *   CLOUDY    30  30 100 CALM      30.27S FOG
$$

IAZ047>049-059>061-072>074-084-060900-
   CENTRAL IOWA

CITY           SKY/WX    TMP DP  RH WIND       PRES   REMARKS
AMES           CLOUDY    29  27  92 SW8       30.23F WCI  21
ANKENY *       CLOUDY    30  30 100 SW6       30.24F WCI  24
BOONE *        CLOUDY    30  28  93 SW6       30.21S WCI  24
CHARITON *     MOCLDY    25  21  86 CALM      30.25S
DES MOINES     CLOUDY    31  26  82 S6        30.24F WCI  25
GRINNELL*      CLOUDY    30  27  86 S7        30.24F WCI  23
KNOXVILLE *    CLOUDY    28  23  80 S6        30.24F WCI  22
MARSHALLTOWN   CLOUDY    29  25  85 SW8       30.23S WCI  21
NEWTON *       CLOUDY    30  28  93 S6        30.24F WCI  24
PELLA *        CLOUDY    30  25  80 S3        30.27F
$$

IAZ004>006-015-016-023>025-035-036-060900-
   NORTH CENTRAL IOWA

CITY           SKY/WX    TMP DP  RH WIND       PRES   REMARKS
ALGONA *       CLOUDY    28  27  93 W10       30.20R FOG     WCI  19
CLARION *      CLOUDY    28  27  93 SW9       30.21S WCI  20
ESTHERVILLE    CLOUDY    25  24  96 W9        30.18S FOG     WCI  15
FORT DODGE *   CLOUDY    28  25  86 SW7       30.22S WCI  21
MASON CITY     CLOUDY    27  26  96 SW7       30.20F WCI  19
FOREST CITY *  CLOUDY    28  28 100 SW6       30.19S FOG     WCI  22
WEBSTER CITY * CLOUDY    28  28 100 SW8       30.20S FOG     WCI  20
IOWA FALLS *   CLOUDY    28  28 100 SW7       30.23R FOG     WCI  21
$$

IAZ007>011-017>019-026>030-037>042-050>054-066-060900-
   NORTHEAST IOWA

CITY           SKY/WX    TMP DP  RH WIND       PRES   REMARKS
CEDAR RAPIDS   CLOUDY    28  24  85 S9        30.24F WCI  19
CHARLES CITY * CLOUDY    27  27 100 SW9       30.21S FOG     WCI  17
CLINTON *      CLOUDY    28  24  85 SW6       30.29F WCI  22
DECORAH *      CLOUDY    27  25  93 VRB7G15   30.19F WCI  19
DUBUQUE        PTCLDY    24  20  84 SW9       30.23F WCI  14
MONTICELLO *   CLOUDY    28  23  80 S7        30.25F WCI  21
OELWEIN *      CLOUDY    27  25  93 SW10      30.23S WCI  17
WATERLOO       CLOUDY    28  23  81 SW9       30.23F WCI  19
$$

IAZ064-065-067-068-078-060900-
   EAST CENTRAL IOWA

CITY           SKY/WX    TMP DP  RH WIND       PRES   REMARKS
DAVENPORT      CLOUDY    28  22  78 SW7       30.29S WCI  21
IOWA CITY      CLOUDY    28  23  81 S3        30.29F
MT. PLEASANT * CLOUDY    32  27  80 S5        30.30S WCI  27
MUSCATINE *    CLOUDY    30  25  80 S6        30.30S WCI  24
QUAD CITIES    CLOUDY    29  22  75 SW5       30.29S WCI  24
$$

IAZ062-063-075>077-085>089-095>099-060900-
   SOUTHEAST IOWA

CITY           SKY/WX    TMP DP  RH WIND       PRES   REMARKS
BURLINGTON     CLOUDY    29  24  82 S5        30.29S WCI  24
FAIRFIELD *    CLOUDY    30  21  69 S5        30.28S WCI  25
FORT MADISON * CLOUDY    28  25  86 S5        30.30R WCI  23
KEOKUK *       CLOUDY    30  23  74 CALM      30.29S
OSKALOOSA *    CLOUDY    28  25  86 CALM      30.27S
CENTERVILLE *    N/A    N/A N/A N/A MISG        N/A
OTTUMWA        MOCLDY    29  22  75 CALM      30.27F
WASHINGTON *   CLOUDY    30  25  80 SW7       30.29F WCI  23
$$

ABBREVIATIONS USED IN REMARKS
   TC - TEMPERATURES IN CELSIUS
  WCI - WIND CHILL INDEX
   HX - HEAT INDEX
  VSB - VISIBILITY
$$




USA.gov is the U.S. government's official web portal to all federal, state and local government web resources and services.